sat.trackr.live / text

‹ back to catalog

STARLINK-37337

NORAD 68953 · 2026-099C

PAYLOAD ACTIVE UNKNOWN

§ Identity

Operator
Country
US
Launch date
2026-05-01
Launch site
AFETR
Launch vehicle
Mass (kg)
RCS (m²)

Purposes: comms

External: N2YO · Heavens-Above · Gunter

§ Orbital elements

Epoch: 2026-05-25T04:00:03.998880Z

Period
92.95 min
Inclination
53.1589°
Eccentricity
0.0001412
Mean motion
15.49240170 rev/d
Perigee alt
418.0 km
Apogee alt
419.9 km
Semi-major
6,797.1 km
B*
1.5773e-3
RAAN
270.8768°
Arg perigee
51.0730°
Mean anomaly
205.9867°
Rev number
496

§ Raw data

STARLINK-373371 68953U 26099C   26145.16671295  .00088054  00000+0  15773-2 0  99912 68953  53.1589 270.8768 0001412  51.0730 205.9867 15.49240170  4965

JSON: /api/v1/satellites/68953 · /tle

For live sub-satellite position, see the globe view (requires WebGL).

§ Visibility from observer

Set your observer location to see the next 7 days of passes ≥ 10°. The values pass through the URL so the page stays shareable.

No JS? Fill the form by hand. The geolocation button needs JavaScript.